VA3XLC Weather Reports


time (UTC)temp
C
wind
direction
speed
KPH
gust
KPH
rain 1hr
cm
rain 24hr
cm
rain mn
cm
humidity
%
barometer
mb
20260906152848 21 128 8.0 14.5 0.00 0.00 0.00 67 986.5
20260906152347 21 115 4.8 9.7 0.00 0.00 0.00 68 986.5
20260906151846 21 118 6.4 14.5 0.00 0.00 0.00 70 986.4
20260906151345 21 108 4.8 9.7 0.00 0.00 0.00 72 986.4
20260906150845 21 160 4.8 8.0 0.00 0.00 0.00 72 986.4
20260906150345 21 112 6.4 12.9 0.00 0.00 0.00 71 986.5
20260906145845 21 104 4.8 9.7 0.00 0.00 0.00 72 986.5
20260906145344 21 81 4.8 4.8 0.00 0.00 0.00 73 986.5
20260906144323 20 138 8.0 9.7 0.00 0.00 0.00 74 986.5
20260906143822 20 127 6.4 8.0 0.00 0.00 0.00 76 986.5
20260906143322 20 118 6.4 8.0 0.00 0.00 0.00 76 986.5
20260906142821 20 144 4.8 8.0 0.00 0.00 0.00 78 986.6
20260906141759 20 154 4.8 9.7 0.00 0.00 0.00 79 986.6
20260906141259 20 131 8.0 11.3 0.00 0.00 0.00 79 986.6
20260906140759 19 66 3.2 6.4 0.00 0.00 0.00 81 986.6
20260906140259 19 130 8.0 9.7 0.00 0.00 0.00 82 986.6
20260906135759 19 142 6.4 9.7 0.00 0.00 0.00 82 986.6
20260906135258 19 124 6.4 11.3 0.00 0.00 0.00 81 986.6
20260906134758 19 127 4.8 8.0 0.00 0.00 0.00 82 986.6
20260906134258 19 116 6.4 9.7 0.00 0.00 0.00 82 986.5
20260906133236 18 160 4.8 8.0 0.00 0.00 0.00 83 986.5
20260906132736 18 109 3.2 4.8 0.00 0.00 0.00 85 986.5
20260906132236 18 102 4.8 8.0 0.00 0.00 0.00 85 986.5
20260906131736 18 85 4.8 8.0 0.00 0.00 0.00 85 986.4
20260906131236 18 117 8.0 12.9 0.00 0.00 0.00 85 986.4
20260906130735 18 131 6.4 9.7 0.00 0.00 0.00 86 986.3
20260906130235 18 100 6.4 11.3 0.00 0.00 0.00 86 986.2
20260906125735 18 136 6.4 9.7 0.00 0.00 0.00 86 986.2
20260906125235 17 102 3.2 4.8 0.00 0.00 0.00 86 986.2
20260906124735 17 120 4.8 6.4 0.00 0.00 0.00 87 986.3
20260906124234 17 73 4.8 6.4 0.00 0.00 0.00 87 986.3
20260906123734 17 80 3.2 6.4 0.00 0.00 0.00 88 986.2
20260906123234 17 91 3.2 8.0 0.00 0.00 0.00 88 986.2
20260906122734 17 70 6.4 8.0 0.00 0.00 0.00 89 986.2
20260906122233 16 69 3.2 6.4 0.00 0.00 0.00 90 986.1
20260906121212 16 140 1.6 4.8 0.00 0.00 0.00 91 986.0
20260906120151 16 125 3.2 4.8 0.00 0.00 0.00 93 985.9
20260906114607 15 90 4.8 8.0 0.00 0.00 0.00 95 985.7
20260906114107 14 85 1.6 3.2 0.00 0.00 0.00 96 985.6
20260906113606 14 92 3.2 4.8 0.00 0.00 0.00 96 985.6
20260906113105 13 61 4.8 6.4 0.00 0.00 0.00 96 985.5
20260906112043 13 0 0.0 0.0 0.00 0.00 0.00 96 985.5
20260906111022 13 37 1.6 3.2 0.00 0.00 0.00 96 985.4
20260906110522 13 0 0.0 0.0 0.00 0.00 0.00 97 985.3
20260906110022 13 0 0.0 0.0 0.00 0.00 0.00 97 985.3
20260906105522 13 39 1.6 3.2 0.00 0.00 0.00 97 985.3
20260906104500 13 0 0.0 0.0 0.00 0.00 0.00 97 985.2
20260906104000 13 0 0.0 0.0 0.00 0.00 0.00 97 985.3
20260906103500 13 0 0.0 0.0 0.00 0.00 0.00 97 985.3
20260906102959 13 0 0.0 0.0 0.00 0.00 0.00 97 985.3
20260906102459 13 0 0.0 0.0 0.00 0.00 0.00 97 985.2
20260906101959 13 0 0.0 0.0 0.00 0.00 0.00 97 985.2
20260906101459 13 0 0.0 0.0 0.00 0.00 0.00 97 985.2
20260906100959 13 0 0.0 0.0 0.00 0.00 0.00 97 985.2
20260906100458 13 0 0.0 0.0 0.00 0.00 0.00 97 985.2
20260906095958 13 0 0.0 0.0 0.00 0.00 0.00 97 985.1
20260906095458 13 0 0.0 0.0 0.00 0.00 0.00 96 985.1
20260906094958 13 0 0.0 0.0 0.00 0.00 0.00 96 985.1
20260906094457 13 0 0.0 0.0 0.00 0.00 0.00 96 985.2
20260906093436 13 0 0.0 0.0 0.00 0.00 0.00 96 985.1
20260906092936 13 0 0.0 0.0 0.00 0.00 0.00 96 984.9
20260906092436 13 0 0.0 0.0 0.00 0.00 0.00 96 984.9
20260906091935 13 0 0.0 0.0 0.00 0.00 0.00 96 984.9
20260906091435 13 0 0.0 0.0 0.00 0.00 0.00 96 984.9
20260906090935 13 0 0.0 0.0 0.00 0.00 0.00 96 984.8
20260906090435 13 0 0.0 0.0 0.00 0.00 0.00 96 984.8
20260906085935 13 0 0.0 0.0 0.00 0.00 0.00 96 984.8
20260906085434 13 0 0.0 0.0 0.00 0.00 0.00 96 984.8
20260906084934 13 0 0.0 0.0 0.00 0.00 0.00 96 984.7
20260906084434 13 0 0.0 0.0 0.00 0.00 0.00 96 984.6
20260906083934 14 0 0.0 0.0 0.00 0.00 0.00 96 984.5
20260906083434 14 0 0.0 0.0 0.00 0.00 0.00 97 984.5
20260906082934 14 0 0.0 0.0 0.00 0.00 0.00 97 984.4
20260906082433 14 0 0.0 0.0 0.00 0.00 0.00 96 984.4
20260906081933 15 0 0.0 0.0 0.00 0.00 0.00 96 984.3
20260906081433 15 0 0.0 0.0 0.00 0.00 0.00 96 984.3
20260906080933 15 48 0.0 1.6 0.00 0.00 0.00 96 984.3
20260906080432 15 0 0.0 0.0 0.00 0.00 0.00 96 984.2
20260906075932 15 0 0.0 0.0 0.00 0.00 0.00 96 984.1
20260906075432 15 177 1.6 3.2 0.00 0.00 0.00 96 984.2
20260906074932 15 171 1.6 3.2 0.00 0.00 0.00 96 984.2
20260906074431 15 96 1.6 3.2 0.00 0.00 0.00 96 984.1
20260906073931 15 185 1.6 3.2 0.00 0.00 0.00 96 984.2
20260906073431 15 0 0.0 0.0 0.00 0.00 0.00 96 984.2
20260906072931 15 0 0.0 0.0 0.00 0.00 0.00 96 984.1
20260906072430 15 53 1.6 3.2 0.00 0.00 0.00 96 984.1
20260906071929 15 36 1.6 3.2 0.00 0.00 0.00 96 984.1
20260906071429 15 148 1.6 1.6 0.00 0.00 0.00 96 984.0
20260906070929 15 32 1.6 3.2 0.00 0.00 0.00 96 984.0
20260906070429 15 53 1.6 3.2 0.00 0.00 0.00 96 984.1
20260906065929 15 149 3.2 4.8 0.00 0.00 0.00 96 984.1
20260906064346 15 0 0.0 0.0 0.00 0.00 0.00 96 984.0
20260906063325 15 0 0.0 0.0 0.00 0.00 0.00 96 984.0
20260906062824 15 142 1.6 3.2 0.00 0.00 0.00 96 984.0
20260906062324 15 51 3.2 6.4 0.00 0.00 0.00 96 984.0
20260906061824 15 0 0.0 0.0 0.00 0.00 0.00 96 984.0
20260906060802 15 339 1.6 1.6 0.00 0.00 0.00 96 984.0
20260906060302 15 179 0.0 1.6 0.00 0.00 0.00 95 984.0
20260906055801 15 66 1.6 4.8 0.00 0.00 0.00 95 984.0
20260906054740 15 94 1.6 1.6 0.00 0.00 0.00 95 984.1
20260906054240 15 133 1.6 1.6 0.00 0.00 0.00 95 984.0
20260906053218 15 0 0.0 0.0 0.00 0.00 0.00 95 984.1
20260906052718 15 56 1.6 3.2 0.00 0.00 0.00 95 984.1
20260906052218 15 122 1.6 1.6 0.00 0.00 0.00 96 984.2
20260906051718 15 0 0.0 0.0 0.00 0.00 0.00 95 984.1
20260906051217 16 0 0.0 0.0 0.00 0.00 0.00 95 984.1
20260906050717 16 0 0.0 0.0 0.00 0.00 0.00 95 984.0
20260906050217 16 91 1.6 3.2 0.00 0.00 0.00 95 984.0
20260906045717 16 87 1.6 4.8 0.00 0.00 0.00 95 984.0
20260906045216 16 0 0.0 0.0 0.00 0.00 0.00 95 984.0
20260906044716 16 0 0.0 0.0 0.00 0.00 0.00 94 984.0
20260906044216 16 0 0.0 0.0 0.00 0.00 0.00 94 984.0
20260906043716 16 63 1.6 3.2 0.00 0.00 0.00 93 984.0
20260906043216 16 78 1.6 3.2 0.00 0.00 0.00 93 983.9
20260906042716 16 54 1.6 3.2 0.00 0.00 0.00 93 983.8
20260906042215 16 170 3.2 4.8 0.00 0.00 0.00 92 983.8
20260906041715 16 95 1.6 3.2 0.00 0.00 0.00 92 983.8
20260906041215 16 98 1.6 4.8 0.00 0.00 0.00 91 983.7
20260906040714 16 73 4.8 6.4 0.00 0.00 0.00 91 983.7
20260906040214 17 82 4.8 8.0 0.00 0.00 0.00 91 983.7
20260906035714 17 77 4.8 9.7 0.00 0.00 0.00 90 983.6
20260906035214 17 117 3.2 6.4 0.00 0.00 0.00 90 983.6
20260906034714 17 80 3.2 6.4 0.00 0.00 0.00 90 983.5
20260906033652 17 79 3.2 6.4 0.00 0.00 0.00 90 983.4
20260906033151 17 87 4.8 6.4 0.00 0.00 0.00 90 983.4
20260906032651 17 103 3.2 8.0 0.00 0.00 0.00 90 983.4
20260906032151 17 135 1.6 4.8 0.00 0.00 0.00 89 983.4
20260906031129 17 77 3.2 4.8 0.00 0.00 0.00 89 983.5
20260906030629 17 96 1.6 4.8 0.00 0.00 0.00 89 983.5
20260906030129 17 41 1.6 4.8 0.00 0.00 0.00 88 983.5
20260906025629 17 44 3.2 6.4 0.00 0.00 0.00 89 983.5
20260906025128 17 340 3.2 6.4 0.00 0.00 0.00 89 983.4
20260906024628 16 35 1.6 4.8 0.00 0.00 0.00 90 983.4
20260906024128 16 43 1.6 6.4 0.00 0.00 0.00 90 983.3
20260906023628 16 347 3.2 6.4 0.00 0.00 0.00 91 983.3
20260906022606 16 327 1.6 3.2 0.00 0.00 0.00 93 983.3
20260906022106 16 0 0.0 0.0 0.00 0.00 0.00 93 983.2
20260906021605 16 349 1.6 3.2 0.00 0.00 0.00 93 983.1
20260906021105 16 0 0.0 0.0 0.00 0.00 0.00 93 983.0
20260906020044 17 338 3.2 4.8 0.00 0.00 0.00 92 983.0
20260906015543 17 11 0.0 1.6 0.00 0.00 0.00 92 982.9
20260906015042 17 3 1.6 3.2 0.00 0.00 0.00 92 982.9
20260906014542 17 0 0.0 0.0 0.00 0.00 0.00 91 982.9
20260906014042 17 305 1.6 3.2 0.00 0.00 0.00 91 982.7
20260906013542 17 348 3.2 4.8 0.00 0.00 0.00 90 982.7
20260906013041 17 342 1.6 4.8 0.00 0.00 0.00 89 982.6
20260906012541 17 318 1.6 3.2 0.00 0.00 0.00 89 982.6
20260906012041 17 347 1.6 3.2 0.00 0.00 0.00 88 982.6
20260906011540 17 0 0.0 0.0 0.00 0.00 0.00 87 982.6
20260906011040 17 7 1.6 1.6 0.00 0.00 0.00 86 982.5
20260906010540 17 28 1.6 3.2 0.00 0.00 0.00 85 982.5
20260906010039 18 356 3.2 4.8 0.00 0.00 0.00 83 982.4
20260906005538 18 330 3.2 4.8 0.00 0.00 0.00 83 982.4
20260906005038 18 346 4.8 6.4 0.00 0.00 0.00 81 982.5
20260906003455 18 350 3.2 4.8 0.00 0.00 0.00 78 982.5
20260906002955 18 1 3.2 8.0 0.00 0.00 0.00 77 982.4
20260906002455 19 8 3.2 6.4 0.00 0.00 0.00 75 982.4
20260906001955 19 33 1.6 4.8 0.00 0.00 0.00 75 982.4
20260906001454 19 348 1.6 4.8 0.00 0.00 0.00 74 982.3
20260906000954 19 336 3.2 6.4 0.00 0.00 0.00 72 982.2
20260906000455 20 322 1.6 4.8 0.00 0.00 0.00 72 982.2
20260905235431 20 345 1.6 3.2 0.00 0.00 0.00 69 982.2
20260905234931 20 338 4.8 8.0 0.00 0.00 0.00 68 982.2
20260905234430 20 347 6.4 11.3 0.00 0.00 0.00 67 982.2
20260905232847 21 339 3.2 6.4 0.00 0.00 0.00 64 982.2
20260905232346 21 17 3.2 8.0 0.00 0.00 0.00 63 982.3
20260905231845 22 344 3.2 6.4 0.00 0.00 0.00 62 982.3
20260905231345 22 332 8.0 12.9 0.00 0.00 0.00 61 982.2
20260905230844 22 342 8.0 14.5 0.00 0.00 0.00 61 982.0
20260905230344 22 352 8.0 12.9 0.00 0.00 0.00 61 982.1
20260905225844 23 340 9.7 14.5 0.00 0.00 0.00 60 982.0
20260905225343 23 341 3.2 8.0 0.00 0.00 0.00 60 981.9
20260905224321 24 20 1.6 4.8 0.00 0.00 0.00 57 981.9
20260905223821 24 37 3.2 8.0 0.00 0.00 0.00 55 981.9
20260905223320 24 71 3.2 9.7 0.00 0.00 0.00 54 981.9
20260905222820 24 50 4.8 8.0 0.00 0.00 0.00 54 981.9
20260905222320 24 358 3.2 8.0 0.00 0.00 0.00 52 981.9
20260905221820 25 0 3.2 4.8 0.00 0.00 0.00 53 981.8
20260905221319 25 49 4.8 9.7 0.00 0.00 0.00 52 981.8
20260905220819 25 98 4.8 9.7 0.00 0.00 0.00 53 981.8
20260905220319 25 27 4.8 6.4 0.00 0.00 0.00 52 981.8
20260905215819 25 53 3.2 6.4 0.00 0.00 0.00 53 981.8
20260905215319 24 58 3.2 6.4 0.00 0.00 0.00 54 981.9
20260905214818 23 29 1.6 3.2 0.00 0.00 0.00 57 981.9
20260905214317 24 102 3.2 6.4 0.00 0.00 0.00 57 981.9
20260905213817 24 320 3.2 6.4 0.00 0.00 0.00 55 981.8
20260905213316 25 24 4.8 8.0 0.00 0.00 0.00 52 981.8
20260905212816 25 357 4.8 9.7 0.00 0.00 0.00 50 981.8
20260905212316 24 347 4.8 6.4 0.00 0.00 0.00 54 981.7
20260905211816 24 321 3.2 8.0 0.00 0.00 0.00 55 981.7
20260905211315 24 331 4.8 9.7 0.00 0.00 0.00 53 981.7
20260905210815 24 6 3.2 6.4 0.00 0.00 0.00 54 981.6
20260905210315 25 5 1.6 4.8 0.00 0.00 0.00 53 981.6
20260905205815 25 353 3.2 4.8 0.00 0.00 0.00 52 981.6
20260905204753 25 14 4.8 6.4 0.00 0.00 0.00 52 981.6
20260905203732 25 54 4.8 11.3 0.00 0.00 0.00 51 981.7
20260905203232 25 62 8.0 14.5 0.00 0.00 0.00 51 981.7
20260905202732 25 85 3.2 6.4 0.00 0.00 0.00 51 981.7
20260905202231 25 45 6.4 11.3 0.00 0.00 0.00 51 981.7
20260905201730 25 15 6.4 8.0 0.00 0.00 0.00 49 981.8
20260905201230 25 31 4.8 8.0 0.00 0.00 0.00 51 981.7
20260905200208 25 77 3.2 4.8 0.00 0.00 0.00 52 981.8
20260905195708 25 23 4.8 8.0 0.00 0.00 0.00 50 981.9
20260905195207 24 357 4.8 8.0 0.00 0.00 0.00 51 981.9
20260905194707 24 29 4.8 9.7 0.00 0.00 0.00 53 981.9
20260905194207 24 62 6.4 9.7 0.00 0.00 0.00 50 981.8
20260905193707 24 74 6.4 12.9 0.00 0.00 0.00 52 981.8
20260905193206 24 32 6.4 8.0 0.00 0.00 0.00 53 981.9
20260905192145 24 160 3.2 8.0 0.00 0.00 0.00 56 982.1
20260905191644 25 39 4.8 14.5 0.00 0.00 0.00 52 982.0
20260905191144 25 92 6.4 11.3 0.00 0.00 0.00 52 982.0
20260905190644 24 8 3.2 4.8 0.00 0.00 0.00 54 982.1
20260905185101 23 49 4.8 8.0 0.00 0.00 0.00 53 982.2
20260905182956 24 109 4.8 8.0 0.00 0.00 0.00 54 982.4
20260905182455 24 333 9.7 11.3 0.00 0.00 0.00 54 982.4
20260905181955 24 119 4.8 6.4 0.00 0.00 0.00 55 982.4
20260905181455 24 73 3.2 6.4 0.00 0.00 0.00 55 982.5
20260905180955 24 91 1.6 3.2 0.00 0.00 0.00 56 982.5
20260905180455 24 82 6.4 12.9 0.00 0.00 0.00 57 982.4
20260905175954 23 312 4.8 8.0 0.00 0.00 0.00 55 982.5
20260905175453 23 336 8.0 11.3 0.00 0.00 0.00 57 982.5
20260905174953 23 116 3.2 4.8 0.00 0.00 0.00 58 982.5
20260905174453 23 133 6.4 11.3 0.00 0.00 0.00 59 982.5
20260905173952 23 99 4.8 11.3 0.00 0.00 0.00 57 982.6
20260905172931 23 127 8.0 12.9 0.00 0.00 0.00 59 982.7
20260905172431 23 69 3.2 4.8 0.00 0.00 0.00 59 982.7
20260905171409 23 147 3.2 8.0 0.00 0.00 0.00 58 982.6
20260905170909 23 337 4.8 6.4 0.00 0.00 0.00 60 982.7
20260905170409 23 239 3.2 4.8 0.00 0.00 0.00 61 982.7
20260905165909 23 16 6.4 8.0 0.00 0.00 0.00 61 982.7
20260905165409 23 56 6.4 9.7 0.00 0.00 0.00 62 982.7
20260905164908 23 233 3.2 4.8 0.00 0.00 0.00 62 982.7
20260905163846 23 23 4.8 6.4 0.00 0.00 0.00 61 982.8
20260905163345 23 120 6.4 11.3 0.00 0.00 0.00 60 982.9
20260905162845 23 96 4.8 6.4 0.00 0.00 0.00 60 982.9
20260905162345 23 54 3.2 8.0 0.00 0.00 0.00 61 982.9
20260905161323 22 170 3.2 4.8 0.00 0.00 0.00 63 982.9
20260905160822 22 147 4.8 8.0 0.00 0.00 0.00 62 982.9
20260905160322 23 96 4.8 8.0 0.00 0.00 0.00 59 982.9
20260905155301 22 69 4.8 8.0 0.00 0.00 0.00 60 983.0
20260905154800 22 37 8.0 11.3 0.00 0.00 0.00 60 983.0
20260905154300 22 61 8.0 9.7 0.00 0.00 0.00 63 983.1
20260905153759 22 152 3.2 6.4 0.00 0.00 0.00 65 983.1
20260905153259 22 88 6.4 12.9 0.00 0.00 0.00 66 983.0